Regional Weather Roundup
Issued by NWS Jackson, KY

Home | Current Version | Previous Version | Text Only | Print | Product List | Glossary On
Versions: 1 2 3 4 5 6 7 8 9 10 11 12 13 14 15 16 17 18 19 20 21 22 23 24 25 26 27 28 29 30 31 32 33 34 35 36 37 38 39 40 41 42 43 44 45 46 47 48 49 50
000
ASUS43 KJKL 230819
RWRJKL

EAST KENTUCKY HOURLY WEATHER ROUNDUP
NATIONAL WEATHER SERVICE JACKSON KY
400 AM EDT WED JUL 23 2014

NOTE: "FAIR" INDICATES FEW OR NO CLOUDS BELOW 12,000 FEET WITH
NO SIGNIFICANT WEATHER AND/OR OBSTRUCTIONS TO VISIBILITY.

* THESE REPORTS ARE NOT UNDER NWS QUALITY CONTROL AND MAY NOT
  REPORT WEATHER SUCH AS PRECIPITATION AND FOG.

KYZ079-080-083-085-087-088-110-112-115-119-120-230900
...EASTERN KENTUCKY...

CITY           SKY/WX    TMP DP  RH WIND       PRES   REMARKS
JACKSON        PTCLDY    73  70  90 CALM      30.08F
LONDON         PTCLDY    73  70  90 CALM      30.09S
SOMERSET*      CLEAR     72  72 100 CALM      30.08S FOG
MONTICELLO*    PTCLDY    71  71 100 CALM      30.09S FOG
MIDDLESBORO*   PTCLDY    68  67  99 CALM      30.10F
HARLAN APT*    CLOUDY    68  68 100 MISG      30.11F VSB 1/4
BLACK MTN*       N/A     66  64  94 SW6         N/A
PIKEVILLE APT* CLEAR     72  70  94 S3        30.09S
BIG SANDY*     CLOUDY    74  71  91 SW3       30.08S
MOREHEAD APT*    N/A     73  72  94 CALM      30.06F
ASHLAND*         N/A    N/A N/A N/A CALM        N/A
$$

KYZ035-036-041-042-044-050-067-078-099-230900
...CENTRAL KENTUCKY...

CITY           SKY/WX    TMP DP  RH WIND       PRES   REMARKS
MT STERLING*   CLEAR     72  70  94 SW5       30.06F
FLEMING/MASON* CLOUDY    73  70  91 SW3       30.04F
DANVILLE*      CLEAR     72  70  94 S3        30.07S
RICHMOND*      CLEAR     75  70  83 SW3       30.06S
LEXINGTON      CLEAR     76  70  82 SW7       30.06S
FRANKFORT      MOCLDY    74  71  91 SW5       30.03S
$$

KYZ091>093-OHZ055-061-077-WVZ005-015-034-035-042-230900
...SOUTHERN OHIO/WEST VIRGINIA...

CITY           SKY/WX    TMP DP  RH WIND       PRES   REMARKS
COVINGTON      PTCLDY    74  69  85 SW5       30.02F
COLUMBUS       CLEAR     77  68  73 CALM      29.98F
DAYTON         PTCLDY    73  67  81 SW8       30.01F
WILMINGTON     CLEAR     68  66  93 S3        30.00F
HUNTINGTON     PTCLDY    72  71  97 S3        30.03S
CHARLESTON     PTCLDY    71  70  96 S3        30.03F
PINEVILLE*     PTCLDY    68  68 100 MISG      30.16S
BECKLEY        CLEAR     67  63  87 CALM      30.15F
BLUEFIELD      PTCLDY    69  63  81 SW3       30.18S
$$

VAZ002-007-008-TNZ017-027-036-066-071-230900
...SOUTHWEST VIRGINIA/EAST TENNESSEE...

CITY           SKY/WX    TMP DP  RH WIND       PRES   REMARKS
WISE*          CLEAR     66  66 100 SW3       30.18S
JONESVILLE*      N/A     66  66 100 CALM      30.13S FOG
ABINGDON*      PTCLDY    68  67  97 CALM      30.14F
BRISTOL        CLEAR     68  65  90 CALM      30.11F
KNOXVILLE      PTCLDY    74  70  87 W5        30.07F
OAK RIDGE      PTCLDY    75  72  90 CALM      30.09F
CROSSVILLE     CLEAR     70  67  90 CALM      30.13F
NASHVILLE      PTCLDY    73  71  93 CALM      30.06F
$$

...KEY TO REMARKS...
VSB - VISIBILITY IN MILES
WCI - WIND CHILL INDEX
HX  - HEAT INDEX

$$


USA.gov is the U.S. government's official web portal to all federal, state and local government web resources and services.